#timestamp,LO_Frequency,Hit,StdDev 
1660885215.4,286047000.9,N
1660885235.2,286047000.6,N
1660885255.1,286047000.3,N
1660885256.0,286047000.3,N
1660885275.8,286047000.5,N
1660885295.6,286047000.0,N
1660885315.5,286047000.1,N
1660885335.3,286046999.9,N
1660885355.1,286047000.3,N
1660885375.9,286046999.9,N
1660885395.7,286047002.1,N
1660885415.6,286047001.4,N
1660885435.4,286047003.0,N
1660885455.2,286047005.6,Y
1660885475.1,286047004.2,P
1660885476.0,286047004.2,N
1660885495.8,286047001.8,N
1660885515.7,286047002.2,N
1660885535.5,286046999.7,N
1660885555.3,286047002.8,N
1660885575.2,286047004.3,N
1660885595.9,286047004.1,N
1660885615.7,286047003.1,N
1660885635.6,286047003.4,N
1660885655.4,286047002.8,N
1660885675.3,286047000.9,N
1660885695.1,286046998.4,N
1660885696.0,286046998.4,N
1660885715.8,286046999.9,N
1660885735.7,286046998.6,N
1660885755.5,286047000.6,N
1660885775.3,286047002.7,N
1660885795.2,286047002.1,N
1660885815.0,286047000.5,N
1660885815.9,286047000.5,N
1660885835.8,286046998.1,N
1660885855.6,286046999.6,N
1660885875.4,286046996.6,N
1660885895.3,286046999.4,N
1660885915.1,286047001.0,N
1660885935.8,286046998.7,N
1660885955.7,286046999.9,N
1660885975.5,286047002.7,N
1660885995.4,286047002.6,N
1660886015.2,286047002.2,N
1660886035.0,286047002.1,N
1660886035.9,286047002.1,N
1660886055.8,286047005.3,N
1660886075.6,286047002.0,N
1660886095.4,286047000.4,N
1660886115.3,286047000.0,N
1660886135.1,286047003.8,N
1660886155.9,286047004.3,N
1660886175.7,286047002.2,N
1660886195.5,286047000.6,N
1660886215.4,286047000.6,N
1660886235.2,286047001.2,N
1660886255.0,286046998.6,N
1660886256.0,286046998.6,N
1660886275.8,286046999.4,N
1660886295.6,286046997.8,N
1660886315.5,286046999.6,N
1660886335.3,286047000.3,N
1660886355.1,286047000.8,N
1660886375.9,286046998.4,N
1660886395.7,286047002.4,N
1660886415.6,286047000.5,N
1660886435.4,286046998.6,N
1660886455.2,286047000.7,N
1660886475.1,286046998.6,N
1660886476.0,286046998.6,N
1660886495.8,286046996.5,N
1660886515.6,286046999.4,N
1660886535.5,286046998.7,N
1660886555.3,286046998.4,N
1660886575.2,286046998.6,N
1660886595.9,286046997.7,N
1660886615.7,286046999.1,N
1660886635.6,286046999.4,N
1660886655.4,286046997.0,N
1660886675.2,286046996.8,N
1660886695.1,286046996.8,N
1660886696.0,286046996.8,N
1660886715.8,286046993.7,Y
1660886735.7,286046995.0,P
1660886755.5,286046993.4,P
1660886775.3,286046993.4,N
1660886795.2,286046995.7,N
1660886815.0,286046997.0,N
1660886815.9,286046997.0,N
1660886835.8,286046999.1,N
1660886855.6,286046997.7,N
1660886875.4,286046996.7,N
1660886895.3,286046995.3,N
1660886915.1,286046999.4,N
1660886916.0,286046999.4,N
1660886935.8,286046998.3,N
1660886955.7,286046999.8,N
1660886975.5,286047000.1,N
1660886995.3,286046998.1,N
1660887015.2,286046999.3,N
1660887035.0,286046998.8,N
1660887035.9,286046998.8,N
1660887055.8,286046996.7,N
1660887075.6,286046998.8,N
1660887095.4,286046997.7,N
1660887115.3,286046999.0,N
1660887135.1,286046998.1,N
1660887155.9,286046999.9,N
1660887175.7,286047000.2,N
1660887195.5,286047002.7,N
1660887215.4,286047001.1,N
1660887235.2,286046999.9,N
1660887255.0,286047001.2,N
1660887255.9,286047001.2,N
1660887275.8,286047002.5,N
1660887295.6,286047002.5,N
1660887315.5,286046999.9,N
1660887335.3,286046999.8,N
1660887355.1,286047004.3,N
1660887375.9,286047001.7,N
1660887395.7,286047001.3,N
1660887415.5,286047000.2,N
1660887435.4,286047001.5,N
1660887455.2,286047000.4,N
1660887475.1,286047001.0,N
1660887476.0,286047001.0,N
1660887495.8,286047000.3,N
1660887515.6,286047000.8,N
1660887535.5,286046998.8,N
1660887555.3,286046998.7,N
1660887575.1,286047000.6,N
1660887595.9,286047000.9,N
1660887615.7,286047000.5,N
1660887635.6,286047000.1,N
1660887655.4,286046998.8,N
1660887675.2,286046995.3,Y
1660887695.1,286046997.6,P
1660887696.0,286046997.6,N
1660887715.8,286046995.8,N
1660887735.7,286046997.6,N
1660887755.5,286046996.2,N
1660887775.3,286046997.2,N
1660887795.2,286046997.2,N
1660887815.9,286046999.0,N
1660887835.7,286046996.5,N
1660887855.6,286046996.9,N
1660887875.4,286046998.4,N
1660887895.3,286046999.9,N
1660887915.1,286046998.2,N
1660887916.0,286046998.2,N
1660887935.8,286046999.5,N
1660887955.7,286046996.9,N
1660887975.5,286046999.2,N
1660887995.3,286046999.0,N
1660888015.2,286046995.7,Y
1660888035.0,286046997.7,P
1660888035.9,286046997.7,P
1660888055.8,286046999.3,P
1660888075.6,286047000.5,N
1660888095.4,286047000.1,N
1660888115.3,286046998.5,N
1660888135.1,286046999.3,N
1660888155.9,286046997.1,N
1660888175.7,286046998.0,N
1660888195.5,286046995.1,Y
1660888215.4,286046998.6,P
1660888235.2,286046999.8,P
1660888255.0,286047002.5,P
1660888255.9,286047002.5,N
1660888275.8,286047003.6,N
1660888295.6,286047003.5,N
1660888315.5,286047002.3,N
1660888335.3,286047000.2,N
1660888355.1,286047002.0,N
1660888375.9,286047001.7,N
1660888395.7,286047003.2,N
1660888415.5,286047003.0,N
1660888435.4,286047001.4,N
1660888455.2,286047002.1,N
1660888475.1,286047000.5,N
1660888476.0,286047000.5,N
1660888495.8,286047002.3,N
1660888515.6,286047003.6,N
1660888535.5,286047005.1,Y
1660888555.3,286047003.8,P
1660888575.1,286047001.9,N
1660888595.9,286047000.6,N
1660888615.7,286046999.9,N
1660888635.6,286046999.1,N
1660888655.4,286046998.6,N
1660888675.2,286046998.1,N
1660888695.1,286047000.6,N
1660888696.0,286047000.6,N
1660888715.8,286047000.0,N
1660888735.6,286047002.6,N
1660888755.5,286047004.3,N
1660888775.3,286047003.0,N
1660888795.2,286047003.8,N
